Location: Hartman Creek State Park
(44.3257°N, 89.2134°W)
Time: 19:45:43
(UTC-06:00)

Cosmos 2263 Rocket - Visible Passes

Search period start: 01 February 2015 00:00
Search period end: 11 February 2015 00:00
Orbit: 822 x 851 km, 71.0° (Epoch: 31 January)

Date Brightness Start Highest point End Pass type
(mag) Time Alt. Az. Time Alt. Az. Time Alt. Az.
01 Feb 2.9 19:20:40 10° NNW 19:24:53 39° NNE 19:24:53 39° NNE visible
01 Feb 4.6 21:04:59 10° NW 21:06:38 18° NW 21:06:38 18° NW visible
02 Feb 2.6 19:04:04 10° NNW 19:09:22 41° NE 19:09:22 41° NE visible
02 Feb 4.2 20:48:16 10° NW 20:51:08 25° WNW 20:51:08 25° WNW visible
03 Feb 2.7 18:47:28 10° NNW 18:52:45 38° NE 18:54:01 34° E visible
03 Feb 3.7 20:31:33 10° NW 20:35:48 33° W 20:35:48 33° W visible
04 Feb 2.8 18:30:52 10° NNW 18:36:04 36° NE 18:38:54 23° ESE visible
04 Feb 3.4 20:14:50 10° NW 20:20:04 38° WSW 20:20:42 36° WSW visible
05 Feb 2.9 18:14:16 10° N 18:19:23 34° NE 18:24:08 12° ESE visible
05 Feb 3.3 19:58:08 10° NW 20:03:27 41° WSW 20:05:57 26° SSW visible
06 Feb 2.9 17:57:41 10° N 18:02:42 31° NE 18:07:45 10° ESE visible
06 Feb 3.2 19:41:27 10° NW 19:46:50 44° WSW 19:51:47 12° S visible
07 Feb 3.0 17:41:06 10° N 17:46:01 29° NE 17:50:58 10° ESE visible
07 Feb 3.1 19:24:46 10° NW 19:30:13 48° WSW 19:35:35 10° S visible
08 Feb 3.0 19:08:06 10° NW 19:13:36 52° WSW 19:19:02 10° S visible
09 Feb 2.9 18:51:24 10° NNW 18:56:59 56° WSW 19:02:28 10° S visible
10 Feb 2.8 18:34:45 10° NNW 18:40:21 61° WSW 18:45:53 10° S visible
